Torna al catalogo

STARLINK-6195

AttivoComunicazioniVLEO
NORAD 56902·PAYLOAD·🇺🇸 United States

Lanciato Jun 12, 2023 da Cape Canaveral Space Force Station

Loading…

Prossimi Passaggi (prossime 24 ore)

TLE

AggiornatoSource: CelesTrak SupGP

Epoca: Sep 14, 2026, 21:57 UTC

1 56902C 23083AC  26257.91506944  .00027460  00000+0  99484-3 0  2570
2 56902  43.0023  82.4072 0001928 272.6246  80.2475 15.27555953    12

Traccia STARLINK-6195 in tempo reale con AllMySat

Download on the App Store